Simultaneous Nadir Overpasses (SNOs) Predictions

Prediction of SNOs between METOP-B and TERRA Satellite Orbit:

Table of predicted SNOs for the next 14.0 days since TLE Epoch: 10/17/2020
Index Date (METOP-B) Time (METOP-B) Lat,Lon (METOP-B) SZA (METOP-B ) Date (TERRA) Time (TERRA) Lat,Lon (TERRA) SZA (TERRA ) Distance(km) Time Diff (sec)
1 10/17/2020 22:25:33 -81.28, 70.24 85.97 10/17/2020 22:26:15 -81.29, 70.41 85.93 2.85 42
2 10/17/2020 23:16:12 81.29,-121.94 94.11 10/17/2020 23:15:41 81.30,-121.84 94.11 1.81 31
3 10/20/2020 17:59:57 -81.28, 136.58 84.96 10/20/2020 18:00:30 -81.28, 136.69 84.93 1.89 33
4 10/20/2020 18:50:36 81.29, -55.63 95.12 10/20/2020 18:49:56 81.29, -55.59 95.10 0.79 40
5 10/23/2020 13:34:20 -81.29,-156.72 83.92 10/23/2020 13:34:44 -81.29,-156.69 83.91 0.69 24
6 10/23/2020 14:24:59 81.29, 11.05 96.15 10/23/2020 14:24:10 81.29, 11.00 96.12 0.90 49
7 10/26/2020 09:08:43 -81.29, -90.43 82.97 10/26/2020 09:08:58 -81.28, -90.49 82.97 1.27 15
8 10/26/2020 09:59:21 81.30, 77.72 97.15 10/26/2020 09:58:23 81.30, 77.55 97.10 2.87 58
9 10/29/2020 04:43:06 -81.29, -23.78 81.99 10/29/2020 04:43:12 -81.28, -23.95 82.02 3.07 6
